Weather History for KLRD - November, 2012

Change the Weather History Date:

Tuesday, November 6, 2012

  Actual Average Record
Temperature  
Mean Temperature 76 °F 69 °F  
Max Temperature 87 °F 80 °F 94 °F (1996)
Min Temperature 65 °F 59 °F 37 °F (1908)
Degree Days  
Heating Degree Days 0 2  
Month to date heating degree days 0 9  
Since 1 July heating degree days 13 21  
Cooling Degree Days 11 6  
Month to date cooling degree days 79 40  
Year to date cooling degree days 4950 4169  
Growing Degree Days 24 (Base 50)    
Moisture  
Dew Point 52 °F    
Average Humidity 49    
Maximum Humidity 84    
Minimum Humidity 29    
Precipitation  
Precipitation 0.00 in 0.05 in 1.10 in (2014)
Month to date precipitation 0.00 0.30  
Year to date precipitation 8.79 18.43  
Sea Level Pressure  
Sea Level Pressure 30.08 in    
Wind  
Wind Speed 8 mph (East)    
Max Wind Speed 18 mph    
Max Gust Speed 23 mph    
Visibility 10 miles    
Events      
T = Trace of Precipitation, MM = Missing Value Source: NWS Daily Summary

Daily Weather History Graph

Daily Weather History Graph

Search for Another Location

Airport or City:

Trip Planner

Search our weather history database for the weather conditions in past years. The results will help you decide how hot, cold, wet, or windy it might be!

Date:

Astronomy

Nov. 06, 2012 Rise Set
Actual Time 6:52 AM CST 5:50 PM CST
Civil Twilight 6:28 AM CST 6:14 PM CST
Nautical Twilight 6:00 AM CST 6:42 PM CST
Astronomical Twilight 5:32 AM CST 7:10 PM CST
Moon No Moon Rise 12:49 PM CST (11/6)
Length of Visible Light 11h 46m
Length of Day
10h 57m
Waning Gibbous, 53% of the Moon is Illuminated
Nov 6
Waning Gibbous
Nov 6
Last Quarter
Nov 13
New
Nov 20
First Quarter
Nov 28
Full

Hourly Weather History & Observations

Time (CST) Temp. Dew Point Humidity Pressure Visibility Wind Dir Wind Speed Gust Speed Precip Events Conditions
12:56 AM 70.9 °F 59.9 °F 68% 30.00 in 10.0 mi Calm Calm - N/A   Clear
1:56 AM 70.0 °F 59.0 °F 68% 30.00 in 10.0 mi Calm Calm - N/A   Clear
2:56 AM 68.0 °F 57.9 °F 70% 30.01 in 10.0 mi NNE 6.9 mph - N/A   Clear
3:56 AM 68.9 °F 56.8 °F 65% 30.00 in 10.0 mi ENE 8.1 mph - N/A   Clear
4:56 AM 66.9 °F 61.0 °F 81% 30.01 in 10.0 mi NE 13.8 mph - N/A   Clear
5:56 AM 65.8 °F 61.0 °F 84% 30.05 in 10.0 mi NE 18.4 mph - N/A   Clear
6:56 AM 64.9 °F 59.9 °F 84% 30.09 in 10.0 mi ENE 12.7 mph - N/A   Clear
7:56 AM 66.9 °F 57.9 °F 73% 30.12 in 10.0 mi ENE 12.7 mph - N/A   Clear
8:56 AM 70.9 °F 52.0 °F 51% 30.15 in 10.0 mi East 13.8 mph - N/A   Clear
9:56 AM 77.0 °F 46.9 °F 34% 30.16 in 10.0 mi East 15.0 mph - N/A   Clear
10:56 AM 79.9 °F 45.9 °F 30% 30.16 in 10.0 mi ESE 6.9 mph - N/A   Clear
11:56 AM 81.9 °F 46.9 °F 29% 30.14 in 10.0 mi NE 5.8 mph - N/A   Clear
12:56 PM 82.9 °F 47.8 °F 29% 30.11 in 10.0 mi Calm Calm - N/A   Clear
1:56 PM 84.9 °F 48.9 °F 29% 30.07 in 10.0 mi Variable 4.6 mph - N/A   Clear
2:56 PM 84.9 °F 50.0 °F 30% 30.06 in 10.0 mi East 8.1 mph - N/A   Clear
3:56 PM 84.2 °F 48.2 °F 29% 30.08 in 10.0 mi Calm Calm - N/A   Clear
4:56 PM 84.9 °F 48.9 °F 29% 30.05 in 10.0 mi ENE 6.9 mph - N/A   Clear
5:56 PM 81.9 °F 48.9 °F 32% 30.07 in 10.0 mi ENE 5.8 mph - N/A   Clear
6:56 PM 79.0 °F 47.8 °F 33% 30.08 in 10.0 mi ENE 6.9 mph - N/A   Clear
7:56 PM 73.9 °F 48.9 °F 41% 30.10 in 10.0 mi East 4.6 mph - N/A   Clear
8:56 PM 72.9 °F 48.9 °F 43% 30.11 in 10.0 mi East 6.9 mph - N/A   Clear
9:56 PM 70.9 °F 47.8 °F 44% 30.12 in 10.0 mi SE 6.9 mph - N/A   Clear
10:56 PM 70.0 °F 47.8 °F 45% 30.12 in 10.0 mi SSE 8.1 mph - N/A   Clear
11:56 PM 68.9 °F 48.9 °F 49% 30.12 in 10.0 mi SSE 8.1 mph - N/A   Clear